Location: College Park
(38.9810°N, 76.9370°W)
Time: 05:05:19

Hubble Space Telescope - Pass Details

Date: 05 January 2018
Orbit: 537 x 541 km, 28.5° (Epoch: 20 March)

Event Time Altitude Azimuth Distance (km) Brightness Sun altitude
Exits shadow 06:32:29 - 240° (WSW) 2,381 3.7 -10.4°
Reaches altitude 10° 06:34:23 10° 227° (SW) 1,785 3.2 -10.1°
Maximum altitude 06:37:19 19° 181° (S) 1,314 3.0 -9.6°
Drops below altitude 10° 06:40:15 10° 136° (SE) 1,783 4.6 -9.0°
Sets 06:43:01 0° 118° (ESE) 2,673 6.7 -8.5°
